Regional Weather Roundup
Issued by NWS New Orleans/Baton Rouge, LA

Home | Current Version | Previous Version | Graphics & Text | Print | Product List | Glossary On
Versions: 1 2 3 4 5 6 7 8 9 10 11 12 13 14 15 16 17 18 19 20 21 22 23 24 25 26 27 28 29 30 31 32 33 34 35 36 37 38 39 40 41 42 43 44 45 46 47 48 49 50
605
ASUS44 KLIX 290410
RWRLIX
NEW ORLEANS REGIONAL WEATHER ROUNDUP
NATIONAL WEATHER SERVICE NEW ORLEANS LA
1100 PM CDT THU AUG 28 2014

NOTE: "FAIR" INDICATES FEW OR NO CLOUDS BELOW 12,000 FEET WITH NO
      SIGNIFICANT WEATHER AND/OR OBSTRUCTIONS TO VISIBILITY.
      SKY/WX - SKY CONDITION AND SIGNIFICANT WEATHER.
      TMP - AIR TEMPERATURE.     DP    - DEWPOINT TEMPERATURE.
      RH  - RELATIVE HUMIDITY.   PRES  - PRESSURE.
      HI  - HEAT INDEX.          WCI   - WIND CHILL INDEX.

*  THESE STATIONS ARE NOT NWS OR FAA STATIONS AND ARE NOT UNDER
   NWS QUALITY CONTROL.

LAZ038-040-048-061>063-065>067-069-290500-
SOUTHEAST LOUISIANA

CITY           SKY/WX    TMP DP  RH WIND       PRES   REMARKS
N.O. AUDUBON   NOT AVBL
N.O. INTL ARPT PTCLDY    82  74  76 SE6       29.97R
N.O. LAKEFRONT CLEAR     81  74  79 SE7       29.97S
N.O. DOWNTOWN*   N/A     82  72  69 SE5       29.98S
SLIDELL        PTCLDY    76  73  91 CALM      29.97R
BATON ROUGE    CLOUDY    80  74  81 E6        29.97R
BOOTHVILLE     CLEAR     82  75  79 SE5       29.97F
BELLE CHASSE   PTCLDY    82  72  71 SE5       29.97R
BOGALUSA*        N/A     80  73  77 CALM      30.00R
GALLIANO*      NOT AVBL
NEW ROADS*       N/A     80  76  88 CALM      29.97R
GONZALES*        N/A     79  77  92 CALM      29.97R
HAMMOND*       MOCLDY    79  72  78 CALM      29.99S
HOUMA*         CLEAR     77  72  84 CALM      29.97S
PORT FOURCHON* PTCLDY    84  73  70 E8G18     29.97S

$$

MSZ070-080>082-290500-
SOUTHERN MISSISSIPPI

CITY           SKY/WX    TMP DP  RH WIND       PRES   REMARKS
MCCOMB         CLOUDY    79  73  82 CALM      29.99R
GULFPORT       CLEAR     81  71  71 SE3       29.98R
BILOXI         PTCLDY    83  71  64 SE3       29.98R
PASCAGOULA     PTCLDY    72  71  97 CALM      29.99R FOG

$$

COASTAL OBSERVATIONS
LAKE AND NEARSHORE STATIONS

STATION/POSITION TIME  TEMP    WIND        PRES    WAVE
                       AIR SEA DIR/SP/G            HT/PER
                 (UTC) (F)     (DEG/KT/KT) (MB)    (FT/S)
PASCAGOULA       0400   83     140/  6/  8 1014.8
WAVELAND YACHT   0400   85     160/ 10/ 12 1014.5
GRAND ISLE       0400   84 84  120/  5/ 10 1015.3
SOUTHWEST PASS   0400   84 89  110/ 16/ 19 1014.7
NEW CANAL        0400   83 85  160/  2/  5 1015.3
SHELL BEACH      0400   82 82  130/  7/  8 1014.8

OFFSHORE STATIONS

STATION/POSITION TIME  TEMP    WIND        PRES    WAVE
                       AIR SEA DIR/SP/G            HT/PER
                 (UTC) (F)     (DEG/KT/KT) (MB)    (FT/S)
64 S DAUPHIN ISL 0325   84 85  120/ 14/ 16 1014.9

$$




USA.gov is the U.S. government's official web portal to all federal, state and local government web resources and services.